This is the latest recevied weather packets stored in our database for station/object KD7AWQ. If no packets are shown the sender has not sent any weather packets the latest 1 day(s).
| Time | Temp. | Humidity | Pressure | Rain* | Wind** | Luminosity | Snow |
|---|---|---|---|---|---|---|---|
| 1778049896 | 12.22° C | 48% | 1183.6 hPa | 0 mm | 0.45 m/s, 298° | 0 W/m² | - |
| 1778049592 | 12.22° C | 47% | 1183.6 hPa | 0 mm | 0.45 m/s, 301° | 0 W/m² | - |
| 1778049290 | 11.67° C | 52% | 1183.1 hPa | 0 mm | 0.45 m/s, 258° | 0 W/m² | - |
| 1778048987 | 11.67° C | 52% | 1183.2 hPa | 0 mm | 3.13 m/s, 251° | 0 W/m² | - |
| 1778048685 | 11.67° C | 51% | 1183.2 hPa | 0 mm | 4.02 m/s, 261° | 0 W/m² | - |
| 1778048381 | 11.67° C | 51% | 1183.1 hPa | 0 mm | 3.13 m/s, 228° | 0 W/m² | - |
| 1778048078 | 11.67° C | 52% | 1183.2 hPa | 0 mm | 3.58 m/s, 252° | 0 W/m² | - |
| 1778047776 | 11.67° C | 51% | 1183.1 hPa | 0 mm | 4.92 m/s, 240° | 0 W/m² | - |
| 1778047474 | 11.67° C | 51% | 1183.2 hPa | 0 mm | 4.47 m/s, 250° | 0 W/m² | - |
| 1778047170 | 11.67° C | 50% | 1183.1 hPa | 0 mm | 4.02 m/s, 250° | 0 W/m² | - |
| 1778046868 | 12.22° C | 50% | 1183.1 hPa | 0 mm | 3.58 m/s, 250° | 0 W/m² | - |
| 1778046564 | 12.22° C | 50% | 1183 hPa | 0 mm | 3.58 m/s, 224° | 0 W/m² | - |
| 1778046261 | 12.22° C | 48% | 1183 hPa | 0 mm | 3.58 m/s, 242° | 0 W/m² | - |
| 1778045957 | 12.78° C | 48% | 1183 hPa | 0 mm | 2.24 m/s, 236° | 0 W/m² | - |
| 1778045656 | 12.78° C | 47% | 1183 hPa | 0 mm | 3.13 m/s, 249° | 0 W/m² | - |
| 1778045354 | 12.78° C | 47% | 1182.8 hPa | 0 mm | 3.58 m/s, 275° | 0 W/m² | - |
| 1778045052 | 12.78° C | 47% | 1182.6 hPa | 0 mm | 3.13 m/s, 244° | 0 W/m² | - |
| 1778044750 | 13.33° C | 46% | 1182.7 hPa | 0 mm | 3.58 m/s, 262° | 0 W/m² | - |
| 1778044446 | 13.33° C | 45% | 1182.6 hPa | 0 mm | 4.92 m/s, 288° | 0 W/m² | - |
| 1778044143 | 13.89° C | 45% | 1182.7 hPa | 0 mm | 3.58 m/s, 273° | 0 W/m² | - |
| 1778043841 | 13.89° C | 44% | 1182.6 hPa | 0 mm | 3.58 m/s, 277° | 0 W/m² | - |
| 1778043537 | 13.89° C | 43% | 1182.4 hPa | 0 mm | 4.02 m/s, 264° | 0 W/m² | - |
| 1778043234 | 13.89° C | 43% | 1182.6 hPa | 0 mm | 5.36 m/s, 294° | 0 W/m² | - |
| 1778042931 | 14.44° C | 43% | 1182.1 hPa | 0 mm | 6.71 m/s, 293° | 0 W/m² | - |
| 1778042629 | 13.89° C | 43% | 1182.3 hPa | 0 mm | 5.36 m/s, 291° | 0 W/m² | - |
* Rain latest hour (hover to see other rain measurements)
** Current wind speed in m/s (hover to see current wind gust speed)